Location: Caltech
(34.1382°N, 118.1253°W)
Time: 04:25:25
(UTC-08:00)

Aureole 2 Rocket - Visible Passes

Search period start: 18 December 2014 00:00
Search period end: 28 December 2014 00:00
Orbit: 345 x 726 km, 73.9° (Epoch: 17 December)

Date Brightness Start Highest point End Pass type
(mag) Time Alt. Az. Time Alt. Az. Time Alt. Az.
18 Dec 3.5 18:39:36 10° N 18:43:49 55° NNE 18:43:49 55° NNE visible
19 Dec 3.2 18:30:33 10° NNW 18:35:38 71° ENE 18:40:27 10° SSE visible
19 Dec 6.5 20:11:28 10° W 20:11:58 10° W 20:12:28 10° W visible
20 Dec 3.2 18:21:28 10° NNW 18:26:33 76° ENE 18:31:21 10° SSE visible
21 Dec 3.2 18:12:20 10° NNW 18:17:25 82° ENE 18:22:11 10° SSE visible
22 Dec 3.2 18:03:10 10° NNW 18:08:14 88° ENE 18:12:59 10° SSE visible
23 Dec 6.4 06:19:31 10° ESE 06:20:43 11° E 06:21:57 10° ENE visible
23 Dec 3.3 17:53:58 10° NNW 17:59:01 87° WSW 18:03:43 10° SSE visible
24 Dec 6.3 06:09:42 10° ESE 06:11:24 12° E 06:13:11 10° ENE visible
24 Dec 3.4 17:44:43 10° NNW 17:49:45 81° WSW 17:54:25 10° SSE visible
25 Dec 6.3 05:59:59 10° SE 06:02:03 14° E 06:04:14 10° ENE visible
25 Dec 3.5 17:35:26 10° NNW 17:40:26 75° WSW 17:45:03 10° S visible
26 Dec 6.2 05:50:18 10° SE 05:52:40 15° E 05:55:10 10° ENE visible
26 Dec 3.6 17:26:07 10° NNW 17:31:05 70° WSW 17:35:38 10° S visible
27 Dec 6.2 05:40:37 10° SE 05:43:14 17° E 05:46:01 10° NE visible
27 Dec 3.8 17:16:46 10° NNW 17:21:40 65° WSW 17:26:10 10° S visible
